Weather in Yurlovka

Russia / Tambov Oblast     52°42′38″N   40°41′07″E
temp.,
°C
wind,
m/s
gust,
m/s
humid.,
%
clouds,
%
prec.,
mm/h
press.,
hPa
HPBL,
m
5 march, fri
fri500:000w4898100 0.4 1001385
03:00−1w51195100 0.8 1002504
06:00−3wnw5995100 0.0 1004334
09:00−4nnw499594 0.1 1007307
12:00−2nnw358821 0.0 1009500
15:00−2nw358725 0.0 1011615
18:00−6wnw228967 0.0 101321
21:00−8wnw229145 0.0 101521
6 march, sat
sat600:00−8wnw229434 0.0 101621
03:00−9nw119467 0.0 101721
06:00−10nne0195100 0.0 101621
09:00−8e1194100 0.0 101724
12:00−5ese1191100 0.0 1017229
15:00−4ene1189100 0.1 1015311
18:00−6n2397100 0.3 101544
21:00−10nnw339582 0.6 101631
7 march, sun
sun700:00−11nw239558 0.0 101624
03:00−12wsw349541 0.0 101648
06:00−13sw47930 0.0 1016118
09:00−9sw6139012 0.0 1014387
12:00−4sw91580100 0.0 10101067
15:00−3sw101777100 0.0 10051236
18:00−3sw101894100 1.4 10021136
21:00−7w51381100 2.5 1004485
8 march, mon
mon800:00−10wsw511820 0.0 1005219
03:00−10sw512852 0.0 1005228
06:00−8sw6148379 0.0 1002380
09:00−6ssw6109590 0.2 1000372
12:00−3w81281100 0.6 10001413
15:00−6w8137483 0.8 10031394
18:00−8wnw6138283 0.1 1007622
21:00−10w6138457 0.1 1009345
9 march, tue
tue900:00−12wsw59910 0.0 1011176
03:00−13w34940 0.0 101186
06:00−14wsw339618 0.0 101328
09:00−12w239555 0.1 1013139
12:00−9nw248999 0.1 1014462
15:00−9n3591100 0.2 1014483
18:00−11nnw3793100 0.1 1015263
21:00−16nw349578 0.2 101871